Year,Month,Day,Hour,Minute,Value (Times are PST for windgust in km/hr)
2012,02,26,00,00,3.20
2012,02,26,00,01,9.60
2012,02,26,00,02,4.80
2012,02,26,00,03,8.10
2012,02,26,00,04,6.40
2012,02,26,00,05,8.10
2012,02,26,00,06,12.90
2012,02,26,00,07,9.60
2012,02,26,00,08,9.60
2012,02,26,00,09,11.30
2012,02,26,00,10,4.80
2012,02,26,00,11,6.40
2012,02,26,00,12,4.80
2012,02,26,00,13,8.10
2012,02,26,00,14,8.10
2012,02,26,00,15,4.80
2012,02,26,00,16,8.10
2012,02,26,00,17,4.80
2012,02,26,00,18,4.80
2012,02,26,00,19,6.40
2012,02,26,00,20,8.10
2012,02,26,00,21,9.60
2012,02,26,00,22,6.40
2012,02,26,00,23,6.40
2012,02,26,00,24,11.30
2012,02,26,00,25,9.60
2012,02,26,00,26,4.80
2012,02,26,00,27,6.40
2012,02,26,00,28,8.10
2012,02,26,00,29,4.80
2012,02,26,00,30,11.30
2012,02,26,00,31,3.20
2012,02,26,00,32,9.60
2012,02,26,00,33,8.10
2012,02,26,00,34,4.80
2012,02,26,00,35,6.40
2012,02,26,00,36,3.20
2012,02,26,00,37,4.80
2012,02,26,00,38,4.80
2012,02,26,00,39,9.60
2012,02,26,00,40,9.60
2012,02,26,00,42,9.60
2012,02,26,00,43,3.20
2012,02,26,00,44,6.40
2012,02,26,00,45,3.20
2012,02,26,00,46,3.20
2012,02,26,00,47,4.80
2012,02,26,00,48,1.60
2012,02,26,00,49,3.20
2012,02,26,00,50,4.80
2012,02,26,00,51,1.60
2012,02,26,00,52,4.80
2012,02,26,00,53,8.10
2012,02,26,00,54,3.20
2012,02,26,00,55,9.60
2012,02,26,00,56,8.10
2012,02,26,00,57,6.40
2012,02,26,00,58,17.70
2012,02,26,00,59,16.10
2012,02,26,01,00,9.60
2012,02,26,01,01,8.10
2012,02,26,01,02,6.40
2012,02,26,01,03,6.40
2012,02,26,01,05,9.60
2012,02,26,01,06,4.80
2012,02,26,01,07,4.80
2012,02,26,01,08,6.40
2012,02,26,01,09,4.80
2012,02,26,01,11,6.40
2012,02,26,01,12,9.60
2012,02,26,01,13,6.40
2012,02,26,01,14,3.20
2012,02,26,01,15,1.60
2012,02,26,01,16,9.60
2012,02,26,01,17,8.10
2012,02,26,01,18,3.20
2012,02,26,01,19,4.80
2012,02,26,01,20,4.80
2012,02,26,01,21,4.80
2012,02,26,01,22,4.80
2012,02,26,01,23,6.40
2012,02,26,01,24,3.20
2012,02,26,01,25,3.20
2012,02,26,01,26,3.20
2012,02,26,01,28,1.60
2012,02,26,01,29,6.40
2012,02,26,01,31,4.80
2012,02,26,01,32,1.60
2012,02,26,01,33,6.40
2012,02,26,01,34,3.20
2012,02,26,01,35,1.60
2012,02,26,01,37,4.80
2012,02,26,01,38,3.20
2012,02,26,01,41,1.60
2012,02,26,01,42,6.40
2012,02,26,01,43,1.60
2012,02,26,01,44,1.60
2012,02,26,01,45,1.60
2012,02,26,01,46,1.60
2012,02,26,01,49,4.80
2012,02,26,01,50,6.40
2012,02,26,01,51,4.80
2012,02,26,01,52,4.80
2012,02,26,01,53,14.50
2012,02,26,01,54,9.60
2012,02,26,01,55,3.20
2012,02,26,01,56,3.20
2012,02,26,01,57,3.20
2012,02,26,01,58,1.60
2012,02,26,02,00,4.80
2012,02,26,02,01,4.80
2012,02,26,02,02,4.80
2012,02,26,02,03,4.80
2012,02,26,02,04,4.80
2012,02,26,02,05,1.60
2012,02,26,02,06,1.60
2012,02,26,02,07,3.20
2012,02,26,02,08,3.20
2012,02,26,02,09,3.20
2012,02,26,02,10,3.20
2012,02,26,02,11,1.60
2012,02,26,02,12,3.20
2012,02,26,02,14,6.40
2012,02,26,02,15,3.20
2012,02,26,02,17,1.60
2012,02,26,02,18,3.20
2012,02,26,02,20,3.20
2012,02,26,02,21,1.60
2012,02,26,02,22,4.80
2012,02,26,02,23,6.40
2012,02,26,02,24,8.10
2012,02,26,02,25,4.80
2012,02,26,02,26,1.60
2012,02,26,02,27,1.60
2012,02,26,02,28,6.40
2012,02,26,02,29,4.80
2012,02,26,02,30,8.10
2012,02,26,02,31,6.40
2012,02,26,02,32,22.50
2012,02,26,02,33,3.20
2012,02,26,02,34,8.10
2012,02,26,02,35,8.10
2012,02,26,02,36,4.80
2012,02,26,02,37,6.40
2012,02,26,02,38,6.40
2012,02,26,02,39,1.60
2012,02,26,02,40,6.40
2012,02,26,02,41,4.80
2012,02,26,02,42,3.20
2012,02,26,02,43,1.60
2012,02,26,02,44,1.60
2012,02,26,02,45,4.80
2012,02,26,02,46,3.20
2012,02,26,02,47,4.80
2012,02,26,02,48,9.60
2012,02,26,02,49,8.10
2012,02,26,02,50,3.20
2012,02,26,02,52,11.30
2012,02,26,02,53,4.80
2012,02,26,02,54,8.10
2012,02,26,02,55,6.40
2012,02,26,02,56,6.40
2012,02,26,02,57,14.50
2012,02,26,02,58,6.40
2012,02,26,02,59,6.40
2012,02,26,03,00,11.30
2012,02,26,03,01,9.60
2012,02,26,03,02,6.40
2012,02,26,03,06,1.60
2012,02,26,03,07,3.20
2012,02,26,03,08,6.40
2012,02,26,03,09,8.10
2012,02,26,03,10,16.10
2012,02,26,03,11,3.20
2012,02,26,03,12,3.20
2012,02,26,03,13,8.10
2012,02,26,03,14,6.40
2012,02,26,03,15,9.60
2012,02,26,03,16,9.60
2012,02,26,03,17,8.10
2012,02,26,03,18,9.60
2012,02,26,03,20,4.80
2012,02,26,03,21,4.80
2012,02,26,03,22,1.60
2012,02,26,03,23,1.60
2012,02,26,03,24,3.20
2012,02,26,03,25,11.30
2012,02,26,03,26,9.60
2012,02,26,03,27,4.80
2012,02,26,03,29,1.60
2012,02,26,03,30,11.30
2012,02,26,03,31,11.30
2012,02,26,03,32,9.60
2012,02,26,03,33,9.60
2012,02,26,03,34,6.40
2012,02,26,03,35,4.80
2012,02,26,03,36,19.30
2012,02,26,03,37,8.10
2012,02,26,03,38,4.80
2012,02,26,03,39,4.80
2012,02,26,03,40,4.80
2012,02,26,03,41,8.10
2012,02,26,03,42,9.60
2012,02,26,03,43,9.60
2012,02,26,03,44,6.40
2012,02,26,03,45,8.10
2012,02,26,03,46,14.50
2012,02,26,03,47,11.30
2012,02,26,03,48,9.60
2012,02,26,03,49,4.80
2012,02,26,03,50,20.90
2012,02,26,03,51,8.10
2012,02,26,03,52,9.60
2012,02,26,03,53,4.80
2012,02,26,03,54,11.30
2012,02,26,03,55,9.60
2012,02,26,03,56,9.60
2012,02,26,03,57,6.40
2012,02,26,03,58,16.10
2012,02,26,03,59,11.30
2012,02,26,04,00,11.30
2012,02,26,04,01,16.10
2012,02,26,04,02,11.30
2012,02,26,04,03,8.10
2012,02,26,04,04,11.30
2012,02,26,04,05,14.50
2012,02,26,04,06,19.30
2012,02,26,04,07,12.90
2012,02,26,04,08,8.10
2012,02,26,04,09,9.60
2012,02,26,04,10,8.10
2012,02,26,04,11,6.40
2012,02,26,04,12,3.20
2012,02,26,04,13,11.30
2012,02,26,04,14,6.40
2012,02,26,04,15,16.10
2012,02,26,04,16,6.40
2012,02,26,04,17,11.30
2012,02,26,04,18,8.10
2012,02,26,04,19,11.30
2012,02,26,04,20,8.10
2012,02,26,04,21,19.30
2012,02,26,04,22,16.10
2012,02,26,04,23,6.40
2012,02,26,04,24,14.50
2012,02,26,04,25,9.60
2012,02,26,04,26,4.80
2012,02,26,04,27,9.60
2012,02,26,04,28,8.10
2012,02,26,04,29,16.10
2012,02,26,04,30,6.40
2012,02,26,04,32,4.80
2012,02,26,04,33,14.50
2012,02,26,04,34,14.50
2012,02,26,04,35,9.60
2012,02,26,04,36,3.20
2012,02,26,04,37,14.50
2012,02,26,04,38,11.30
2012,02,26,04,39,4.80
2012,02,26,04,40,8.10
2012,02,26,04,41,8.10
2012,02,26,04,42,12.90
2012,02,26,04,43,16.10
2012,02,26,04,44,17.70
2012,02,26,04,45,3.20
2012,02,26,04,46,4.80
2012,02,26,04,47,6.40
2012,02,26,04,48,8.10
2012,02,26,04,49,9.60
2012,02,26,04,50,4.80
2012,02,26,04,51,8.10
2012,02,26,04,52,8.10
2012,02,26,04,53,8.10
2012,02,26,04,54,3.20
2012,02,26,04,55,14.50
2012,02,26,04,56,6.40
2012,02,26,04,57,6.40
2012,02,26,04,58,8.10
2012,02,26,04,59,4.80
2012,02,26,05,00,8.10
2012,02,26,05,01,6.40
2012,02,26,05,02,9.60
2012,02,26,05,03,6.40
2012,02,26,05,04,6.40
2012,02,26,05,05,14.50
2012,02,26,05,06,11.30
2012,02,26,05,07,4.80
2012,02,26,05,08,22.50
2012,02,26,05,09,6.40
2012,02,26,05,10,8.10
2012,02,26,05,11,11.30
2012,02,26,05,12,4.80
2012,02,26,05,13,4.80
2012,02,26,05,14,17.70
2012,02,26,05,15,8.10
2012,02,26,05,16,9.60
2012,02,26,05,17,6.40
2012,02,26,05,18,6.40
2012,02,26,05,19,4.80
2012,02,26,05,20,11.30
2012,02,26,05,21,9.60
2012,02,26,05,22,11.30
2012,02,26,05,23,6.40
2012,02,26,05,24,14.50
2012,02,26,05,25,16.10
2012,02,26,05,26,8.10
2012,02,26,05,27,16.10
2012,02,26,05,28,9.60
2012,02,26,05,29,16.10
2012,02,26,05,30,17.70
2012,02,26,05,31,11.30
2012,02,26,05,32,9.60
2012,02,26,05,33,11.30
2012,02,26,05,34,22.50
2012,02,26,05,35,16.10
2012,02,26,05,36,12.90
2012,02,26,05,37,8.10
2012,02,26,05,38,20.90
2012,02,26,05,39,14.50
2012,02,26,05,40,9.60
2012,02,26,05,41,19.30
2012,02,26,05,42,17.70
2012,02,26,05,43,11.30
2012,02,26,05,44,14.50
2012,02,26,05,45,11.30
2012,02,26,05,46,17.70
2012,02,26,05,47,6.40
2012,02,26,05,48,22.50
2012,02,26,05,49,9.60
2012,02,26,05,50,22.50
2012,02,26,05,51,16.10
2012,02,26,05,52,22.50
2012,02,26,05,53,20.90
2012,02,26,05,54,9.60
2012,02,26,05,55,17.70
2012,02,26,05,56,20.90
2012,02,26,05,57,6.40
2012,02,26,05,58,16.10
2012,02,26,05,59,20.90
2012,02,26,06,00,20.90
2012,02,26,06,01,19.30
2012,02,26,06,02,19.30
2012,02,26,06,03,12.90
2012,02,26,06,04,16.10
2012,02,26,06,05,14.50
2012,02,26,06,06,19.30
2012,02,26,06,07,16.10
2012,02,26,06,08,17.70
2012,02,26,06,09,9.60
2012,02,26,06,10,12.90
2012,02,26,06,11,17.70
2012,02,26,06,12,22.50
2012,02,26,06,13,25.70
2012,02,26,06,14,19.30
2012,02,26,06,15,9.60
2012,02,26,06,16,12.90
2012,02,26,06,17,16.10
2012,02,26,06,18,11.30
2012,02,26,06,19,19.30
2012,02,26,06,20,8.10
2012,02,26,06,21,16.10
2012,02,26,06,22,22.50
2012,02,26,06,23,17.70
2012,02,26,06,24,14.50
2012,02,26,06,25,17.70
2012,02,26,06,26,20.90
2012,02,26,06,27,8.10
2012,02,26,06,28,19.30
2012,02,26,06,29,16.10
2012,02,26,06,30,9.60
2012,02,26,06,31,9.60
2012,02,26,06,32,19.30
2012,02,26,06,33,19.30
2012,02,26,06,34,24.20
2012,02,26,06,35,22.50
2012,02,26,06,36,11.30
2012,02,26,06,37,20.90
2012,02,26,06,38,25.70
2012,02,26,06,39,17.70
2012,02,26,06,40,17.70
2012,02,26,06,41,16.10
2012,02,26,06,42,8.10
2012,02,26,06,43,24.20
2012,02,26,06,44,14.50
2012,02,26,06,45,17.70
2012,02,26,06,46,19.30
2012,02,26,06,47,12.90
2012,02,26,06,48,20.90
2012,02,26,06,49,20.90
2012,02,26,06,50,19.30
2012,02,26,06,51,14.50
2012,02,26,06,52,30.60
2012,02,26,06,53,12.90
2012,02,26,06,54,14.50
2012,02,26,06,55,19.30
2012,02,26,06,56,22.50
2012,02,26,06,57,22.50
2012,02,26,06,58,24.20
2012,02,26,06,59,20.90
2012,02,26,07,00,14.50
2012,02,26,07,01,24.20
2012,02,26,07,02,19.30
2012,02,26,07,03,17.70
2012,02,26,07,04,16.10
2012,02,26,07,05,12.90
2012,02,26,07,06,11.30
2012,02,26,07,07,17.70
2012,02,26,07,08,8.10
2012,02,26,07,09,16.10
2012,02,26,07,10,16.10
2012,02,26,07,11,20.90
2012,02,26,07,12,11.30
2012,02,26,07,13,19.30
2012,02,26,07,14,14.50
2012,02,26,07,15,14.50
2012,02,26,07,16,25.70
2012,02,26,07,17,22.50
2012,02,26,07,18,8.10
2012,02,26,07,19,11.30
2012,02,26,07,20,14.50
2012,02,26,07,21,14.50
2012,02,26,07,22,19.30
2012,02,26,07,23,22.50
2012,02,26,07,24,17.70
2012,02,26,07,25,11.30
2012,02,26,07,26,17.70
2012,02,26,07,27,14.50
2012,02,26,07,28,25.70
2012,02,26,07,29,24.20
2012,02,26,07,30,20.90
2012,02,26,07,31,16.10
2012,02,26,07,32,17.70
2012,02,26,07,33,22.50
2012,02,26,07,34,19.30
2012,02,26,07,35,19.30
2012,02,26,07,36,19.30
2012,02,26,07,37,20.90
2012,02,26,07,38,19.30
2012,02,26,07,39,22.50
2012,02,26,07,40,20.90
2012,02,26,07,41,11.30
2012,02,26,07,42,22.50
2012,02,26,07,43,17.70
2012,02,26,07,44,19.30
2012,02,26,07,45,25.70
2012,02,26,07,46,16.10
2012,02,26,07,47,11.30
2012,02,26,07,48,16.10
2012,02,26,07,49,19.30
2012,02,26,07,50,22.50
2012,02,26,07,51,11.30
2012,02,26,07,52,22.50
2012,02,26,07,53,17.70
2012,02,26,07,54,19.30
2012,02,26,07,55,16.10
2012,02,26,07,56,19.30
2012,02,26,07,57,22.50
2012,02,26,07,58,9.60
2012,02,26,07,59,19.30
2012,02,26,08,00,24.20
2012,02,26,08,01,9.60
2012,02,26,08,02,14.50
2012,02,26,08,03,19.30
2012,02,26,08,04,16.10
2012,02,26,08,05,17.70
2012,02,26,08,06,24.20
2012,02,26,08,07,30.60
2012,02,26,08,08,25.70
2012,02,26,08,09,14.50
2012,02,26,08,10,19.30
2012,02,26,08,11,16.10
2012,02,26,08,12,16.10
2012,02,26,08,13,17.70
2012,02,26,08,14,16.10
2012,02,26,08,15,16.10
2012,02,26,08,16,20.90
2012,02,26,08,17,20.90
2012,02,26,08,18,9.60
2012,02,26,08,19,11.30
2012,02,26,08,20,19.30
2012,02,26,08,21,11.30
2012,02,26,08,22,16.10
2012,02,26,08,23,16.10
2012,02,26,08,24,25.70
2012,02,26,08,25,20.90
2012,02,26,08,26,14.50
2012,02,26,08,27,19.30
2012,02,26,08,28,19.30
2012,02,26,08,29,20.90
2012,02,26,08,30,16.10
2012,02,26,08,31,11.30
2012,02,26,08,32,9.60
2012,02,26,08,33,17.70
2012,02,26,08,34,17.70
2012,02,26,08,35,20.90
2012,02,26,08,36,8.10
2012,02,26,08,37,8.10
2012,02,26,08,38,14.50
2012,02,26,08,39,17.70
2012,02,26,08,40,17.70
2012,02,26,08,41,11.30
2012,02,26,08,42,17.70
2012,02,26,08,43,17.70
2012,02,26,08,44,12.90
2012,02,26,08,45,16.10
2012,02,26,08,46,16.10
2012,02,26,08,47,11.30
2012,02,26,08,48,17.70
2012,02,26,08,49,20.90
2012,02,26,08,50,20.90
2012,02,26,08,51,8.10
2012,02,26,08,52,16.10
2012,02,26,08,53,16.10
2012,02,26,08,54,11.30
2012,02,26,08,55,14.50
2012,02,26,08,56,16.10
2012,02,26,08,57,14.50
2012,02,26,08,58,17.70
2012,02,26,08,59,14.50
2012,02,26,09,00,20.90
2012,02,26,09,01,17.70
2012,02,26,09,02,14.50
2012,02,26,09,03,16.10
2012,02,26,09,04,6.40
2012,02,26,09,05,8.10
2012,02,26,09,06,17.70
2012,02,26,09,07,25.70
2012,02,26,09,08,11.30
2012,02,26,09,09,25.70
2012,02,26,09,10,25.70
2012,02,26,09,11,32.20
2012,02,26,09,12,20.90
2012,02,26,09,13,9.60
2012,02,26,09,14,16.10
2012,02,26,09,15,22.50
2012,02,26,09,16,24.20
2012,02,26,09,17,20.90
2012,02,26,09,18,14.50
2012,02,26,09,19,20.90
2012,02,26,09,20,20.90
2012,02,26,09,21,16.10
2012,02,26,09,22,17.70
2012,02,26,09,23,14.50
2012,02,26,09,24,17.70
2012,02,26,09,25,24.20
2012,02,26,09,26,11.30
2012,02,26,09,27,16.10
2012,02,26,09,28,20.90
2012,02,26,09,29,19.30
2012,02,26,09,30,14.50
2012,02,26,09,31,22.50
2012,02,26,09,32,14.50
2012,02,26,09,33,19.30
2012,02,26,09,34,22.50
2012,02,26,09,35,22.50
2012,02,26,09,36,30.60
2012,02,26,09,37,20.90
2012,02,26,09,38,14.50
2012,02,26,09,39,6.40
2012,02,26,09,40,24.20
2012,02,26,09,41,9.60
2012,02,26,09,42,20.90
2012,02,26,09,43,16.10
2012,02,26,09,44,14.50
2012,02,26,09,45,20.90
2012,02,26,09,46,20.90
2012,02,26,09,47,22.50
2012,02,26,09,48,22.50
2012,02,26,09,49,24.20
2012,02,26,09,50,25.70
2012,02,26,09,51,22.50
2012,02,26,09,52,24.20
2012,02,26,09,53,22.50
2012,02,26,09,54,16.10
2012,02,26,09,55,14.50
2012,02,26,09,56,22.50
2012,02,26,09,57,22.50
2012,02,26,09,58,17.70
2012,02,26,09,59,6.40
2012,02,26,10,00,20.90
2012,02,26,10,01,20.90
2012,02,26,10,02,20.90
2012,02,26,10,03,19.30
2012,02,26,10,04,20.90
2012,02,26,10,05,20.90
2012,02,26,10,06,25.70
2012,02,26,10,07,29.00
2012,02,26,10,08,11.30
2012,02,26,10,09,25.70
2012,02,26,10,10,24.20
2012,02,26,10,11,30.60
2012,02,26,10,12,24.20
2012,02,26,10,13,25.70
2012,02,26,10,14,19.30
2012,02,26,10,15,17.70
2012,02,26,10,16,11.30
2012,02,26,10,17,20.90
2012,02,26,10,18,19.30
2012,02,26,10,19,22.50
2012,02,26,10,20,8.10
2012,02,26,10,21,16.10
2012,02,26,10,22,24.20
2012,02,26,10,23,20.90
2012,02,26,10,24,17.70
2012,02,26,10,25,22.50
2012,02,26,10,26,20.90
2012,02,26,10,27,20.90
2012,02,26,10,28,17.70
2012,02,26,10,29,20.90
2012,02,26,10,30,24.20
2012,02,26,10,31,22.50
2012,02,26,10,32,27.40
2012,02,26,10,33,19.30
2012,02,26,10,34,19.30
2012,02,26,10,35,17.70
2012,02,26,10,36,27.40
2012,02,26,10,37,17.70
2012,02,26,10,38,29.00
2012,02,26,10,39,9.60
2012,02,26,10,40,19.30
2012,02,26,10,41,19.30
2012,02,26,10,42,20.90
2012,02,26,10,43,29.00
2012,02,26,10,44,11.30
2012,02,26,10,45,19.30
2012,02,26,10,46,17.70
2012,02,26,10,47,20.90
2012,02,26,10,48,25.70
2012,02,26,10,49,27.40
2012,02,26,10,50,20.90
2012,02,26,10,51,14.50
2012,02,26,10,52,17.70
2012,02,26,10,53,17.70
2012,02,26,10,54,29.00
2012,02,26,10,55,29.00
2012,02,26,10,56,24.20
2012,02,26,10,57,24.20
2012,02,26,10,58,25.70
2012,02,26,10,59,11.30
2012,02,26,11,00,22.50
2012,02,26,11,01,24.20
2012,02,26,11,02,25.70
2012,02,26,11,03,16.10
2012,02,26,11,04,20.90
2012,02,26,11,05,17.70
2012,02,26,11,06,16.10
2012,02,26,11,07,16.10
2012,02,26,11,08,16.10
2012,02,26,11,09,11.30
2012,02,26,11,10,22.50
2012,02,26,11,11,22.50
2012,02,26,11,12,9.60
2012,02,26,11,13,32.20
2012,02,26,11,14,19.30
2012,02,26,11,15,17.70
2012,02,26,11,16,19.30
2012,02,26,11,17,11.30
2012,02,26,11,18,16.10
2012,02,26,11,19,17.70
2012,02,26,11,20,12.90
2012,02,26,11,21,20.90
2012,02,26,11,22,20.90
2012,02,26,11,23,22.50
2012,02,26,11,24,22.50
2012,02,26,11,25,22.50
2012,02,26,11,26,16.10
2012,02,26,11,27,16.10
2012,02,26,11,28,8.10
2012,02,26,11,29,8.10
2012,02,26,11,30,19.30
2012,02,26,11,31,19.30
2012,02,26,11,32,27.40
2012,02,26,11,33,14.50
2012,02,26,11,34,20.90
2012,02,26,11,35,14.50
2012,02,26,11,36,9.60
2012,02,26,11,37,9.60
2012,02,26,11,38,17.70
2012,02,26,11,39,11.30
2012,02,26,11,40,17.70
2012,02,26,11,41,20.90
2012,02,26,11,42,24.20
2012,02,26,11,43,11.30
2012,02,26,11,44,14.50
2012,02,26,11,45,19.30
2012,02,26,11,46,14.50
2012,02,26,11,47,17.70
2012,02,26,11,48,19.30
2012,02,26,11,49,20.90
2012,02,26,11,50,11.30
2012,02,26,11,51,8.10
2012,02,26,11,52,11.30
2012,02,26,11,53,14.50
2012,02,26,11,54,11.30
2012,02,26,11,55,17.70
2012,02,26,11,56,9.60
2012,02,26,11,57,17.70
2012,02,26,11,58,14.50
2012,02,26,11,59,17.70
2012,02,26,12,00,14.50
2012,02,26,12,01,9.60
2012,02,26,12,02,9.60
2012,02,26,12,03,9.60
2012,02,26,12,04,3.20
2012,02,26,12,05,4.80
2012,02,26,12,06,11.30
2012,02,26,12,07,14.50
2012,02,26,12,08,11.30
2012,02,26,12,09,17.70
2012,02,26,12,10,11.30
2012,02,26,12,11,9.60
2012,02,26,12,12,11.30
2012,02,26,12,13,6.40
2012,02,26,12,14,8.10
2012,02,26,12,15,9.60
2012,02,26,12,16,20.90
2012,02,26,12,17,8.10
2012,02,26,12,18,14.50
2012,02,26,12,19,19.30
2012,02,26,12,20,11.30
2012,02,26,12,21,14.50
2012,02,26,12,22,16.10
2012,02,26,12,23,6.40
2012,02,26,12,24,3.20
2012,02,26,12,25,14.50
2012,02,26,12,26,20.90
2012,02,26,12,27,17.70
2012,02,26,12,28,11.30
2012,02,26,12,29,14.50
2012,02,26,12,30,6.40
2012,02,26,12,31,16.10
2012,02,26,12,32,22.50
2012,02,26,12,33,9.60
2012,02,26,12,34,19.30
2012,02,26,12,35,19.30
2012,02,26,12,36,20.90
2012,02,26,12,37,25.70
2012,02,26,12,38,17.70
2012,02,26,12,39,9.60
2012,02,26,12,40,12.90
2012,02,26,12,41,11.30
2012,02,26,12,42,22.50
2012,02,26,12,43,20.90
2012,02,26,12,44,8.10
2012,02,26,12,45,8.10
2012,02,26,12,46,24.20
2012,02,26,12,47,14.50
2012,02,26,12,48,19.30
2012,02,26,12,49,16.10
2012,02,26,12,50,22.50
2012,02,26,12,51,20.90
2012,02,26,12,52,29.00
2012,02,26,12,53,16.10
2012,02,26,12,54,16.10
2012,02,26,12,55,19.30
2012,02,26,12,56,19.30
2012,02,26,12,57,8.10
2012,02,26,12,58,8.10
2012,02,26,12,59,19.30
2012,02,26,13,00,11.30
2012,02,26,13,01,17.70
2012,02,26,13,02,9.60
2012,02,26,13,03,17.70
2012,02,26,13,04,17.70
2012,02,26,13,05,19.30
2012,02,26,13,06,20.90
2012,02,26,13,07,17.70
2012,02,26,13,08,19.30
2012,02,26,13,09,14.50
2012,02,26,13,10,16.10
2012,02,26,13,11,19.30
2012,02,26,13,12,14.50
2012,02,26,13,13,22.50
2012,02,26,13,14,11.30
2012,02,26,13,15,22.50
2012,02,26,13,16,25.70
2012,02,26,13,17,19.30
2012,02,26,13,18,20.90
2012,02,26,13,19,19.30
2012,02,26,13,20,12.90
2012,02,26,13,21,3.20
2012,02,26,13,22,4.80
2012,02,26,13,23,14.50
2012,02,26,13,24,19.30
2012,02,26,13,25,12.90
2012,02,26,13,26,17.70
2012,02,26,13,27,20.90
2012,02,26,13,28,17.70
2012,02,26,13,29,8.10
2012,02,26,13,30,11.30
2012,02,26,13,31,19.30
2012,02,26,13,32,16.10
2012,02,26,13,33,14.50
2012,02,26,13,34,11.30
2012,02,26,13,35,11.30
2012,02,26,13,36,16.10
2012,02,26,13,37,16.10
2012,02,26,13,38,27.40
2012,02,26,13,39,16.10
2012,02,26,13,40,16.10
2012,02,26,13,41,11.30
2012,02,26,13,42,22.50
2012,02,26,13,43,8.10
2012,02,26,13,44,17.70
2012,02,26,13,45,16.10
2012,02,26,13,46,11.30
2012,02,26,13,47,8.10
2012,02,26,13,48,9.60
2012,02,26,13,49,16.10
2012,02,26,13,50,17.70
2012,02,26,13,51,11.30
2012,02,26,13,52,16.10
2012,02,26,13,53,9.60
2012,02,26,13,54,11.30
2012,02,26,13,55,9.60
2012,02,26,13,56,6.40
2012,02,26,13,57,6.40
2012,02,26,13,58,14.50
2012,02,26,13,59,9.60
2012,02,26,14,00,9.60
2012,02,26,14,01,11.30
2012,02,26,14,02,9.60
2012,02,26,14,03,12.90
2012,02,26,14,04,14.50
2012,02,26,14,05,12.90
2012,02,26,14,06,11.30
2012,02,26,14,07,9.60
2012,02,26,14,08,14.50
2012,02,26,14,09,17.70
2012,02,26,14,10,16.10
2012,02,26,14,11,9.60
2012,02,26,14,12,16.10
2012,02,26,14,13,17.70
2012,02,26,14,14,9.60
2012,02,26,14,15,4.80
2012,02,26,14,16,3.20
2012,02,26,14,17,4.80
2012,02,26,14,18,16.10
2012,02,26,14,19,19.30
2012,02,26,14,20,17.70
2012,02,26,14,21,14.50
2012,02,26,14,22,8.10
2012,02,26,14,23,14.50
2012,02,26,14,24,12.90
2012,02,26,14,25,9.60
2012,02,26,14,26,8.10
2012,02,26,14,27,9.60
2012,02,26,14,28,9.60
2012,02,26,14,29,8.10
2012,02,26,14,30,8.10
2012,02,26,14,31,4.80
2012,02,26,14,32,8.10
2012,02,26,14,33,16.10
2012,02,26,14,34,8.10
2012,02,26,14,35,8.10
2012,02,26,14,36,6.40
2012,02,26,14,37,6.40
2012,02,26,14,38,12.90
2012,02,26,14,39,9.60
2012,02,26,14,40,3.20
2012,02,26,14,41,8.10
2012,02,26,14,42,6.40
2012,02,26,14,43,6.40
2012,02,26,14,44,6.40
2012,02,26,14,45,11.30
2012,02,26,14,46,16.10
2012,02,26,14,47,8.10
2012,02,26,14,48,3.20
2012,02,26,14,49,9.60
2012,02,26,14,50,11.30
2012,02,26,14,51,9.60
2012,02,26,14,52,9.60
2012,02,26,14,53,16.10
2012,02,26,14,54,20.90
2012,02,26,14,55,8.10
2012,02,26,14,56,8.10
2012,02,26,14,57,3.20
2012,02,26,14,58,9.60
2012,02,26,14,59,11.30
2012,02,26,15,00,6.40
2012,02,26,15,01,27.40
2012,02,26,15,02,12.90
2012,02,26,15,03,6.40
2012,02,26,15,04,14.50
2012,02,26,15,05,6.40
2012,02,26,15,06,3.20
2012,02,26,15,07,16.10
2012,02,26,15,08,16.10
2012,02,26,15,09,19.30
2012,02,26,15,10,22.50
2012,02,26,15,11,9.60
2012,02,26,15,12,4.80
2012,02,26,15,13,17.70
2012,02,26,15,14,14.50
2012,02,26,15,15,19.30
2012,02,26,15,16,17.70
2012,02,26,15,17,14.50
2012,02,26,15,18,11.30
2012,02,26,15,19,14.50
2012,02,26,15,20,6.40
2012,02,26,15,21,9.60
2012,02,26,15,22,1.60
2012,02,26,15,23,8.10
2012,02,26,15,24,11.30
2012,02,26,15,25,6.40
2012,02,26,15,26,8.10
2012,02,26,15,27,11.30
2012,02,26,15,28,14.50
2012,02,26,15,29,11.30
2012,02,26,15,30,4.80
2012,02,26,15,31,8.10
2012,02,26,15,32,4.80
2012,02,26,15,33,3.20
2012,02,26,15,34,3.20
2012,02,26,15,35,6.40
2012,02,26,15,36,17.70
2012,02,26,15,37,4.80
2012,02,26,15,38,11.30
2012,02,26,15,39,4.80
2012,02,26,15,40,6.40
2012,02,26,15,41,4.80
2012,02,26,15,42,6.40
2012,02,26,15,43,6.40
2012,02,26,15,44,6.40
2012,02,26,15,46,1.60
2012,02,26,15,47,4.80
2012,02,26,15,48,8.10
2012,02,26,15,49,6.40
2012,02,26,15,50,3.20
2012,02,26,15,51,3.20
2012,02,26,15,52,3.20
2012,02,26,15,53,12.90
2012,02,26,15,54,16.10
2012,02,26,15,55,4.80
2012,02,26,15,56,11.30
2012,02,26,15,57,9.60
2012,02,26,15,58,4.80
2012,02,26,15,59,4.80
2012,02,26,16,00,6.40
2012,02,26,16,01,4.80
2012,02,26,16,02,3.20
2012,02,26,16,03,1.60
2012,02,26,16,04,4.80
2012,02,26,16,05,1.60
2012,02,26,16,06,3.20
2012,02,26,16,07,3.20
2012,02,26,16,08,4.80
2012,02,26,16,09,4.80
2012,02,26,16,10,3.20
2012,02,26,16,11,1.60
2012,02,26,16,12,6.40
2012,02,26,16,13,4.80
2012,02,26,16,14,4.80
2012,02,26,16,15,4.80
2012,02,26,16,16,4.80
2012,02,26,16,17,3.20
2012,02,26,16,18,3.20
2012,02,26,16,19,1.60
2012,02,26,16,20,3.20
2012,02,26,16,21,3.20
2012,02,26,16,24,4.80
2012,02,26,16,26,1.60
2012,02,26,16,28,4.80
2012,02,26,16,31,3.20
2012,02,26,16,32,4.80
2012,02,26,16,34,3.20
2012,02,26,16,35,4.80
2012,02,26,16,36,6.40
2012,02,26,16,37,4.80
2012,02,26,16,38,1.60
2012,02,26,16,39,6.40
2012,02,26,16,40,3.20
2012,02,26,16,41,4.80
2012,02,26,16,42,1.60
2012,02,26,16,43,1.60
2012,02,26,16,44,3.20
2012,02,26,16,45,1.60
2012,02,26,16,46,8.10
2012,02,26,16,47,9.60
2012,02,26,16,48,16.10
2012,02,26,16,49,12.90
2012,02,26,16,50,6.40
2012,02,26,16,51,9.60
2012,02,26,16,52,11.30
2012,02,26,16,53,14.50
2012,02,26,16,54,27.40
2012,02,26,16,55,11.30
2012,02,26,16,56,9.60
2012,02,26,16,57,9.60
2012,02,26,16,58,9.60
2012,02,26,16,59,16.10
2012,02,26,17,00,20.90
2012,02,26,17,01,16.10
2012,02,26,17,02,19.30
2012,02,26,17,03,19.30
2012,02,26,17,04,19.30
2012,02,26,17,05,17.70
2012,02,26,17,06,17.70
2012,02,26,17,07,6.40
2012,02,26,17,08,11.30
2012,02,26,17,09,19.30
2012,02,26,17,10,19.30
2012,02,26,17,11,9.60
2012,02,26,17,12,14.50
2012,02,26,17,13,16.10
2012,02,26,17,14,17.70
2012,02,26,17,15,8.10
2012,02,26,17,16,17.70
2012,02,26,17,17,14.50
2012,02,26,17,18,14.50
2012,02,26,17,19,4.80
2012,02,26,17,20,3.20
2012,02,26,17,21,6.40
2012,02,26,17,22,9.60
2012,02,26,17,23,14.50
2012,02,26,17,24,4.80
2012,02,26,17,25,12.90
2012,02,26,17,26,9.60
2012,02,26,17,27,6.40
2012,02,26,17,28,8.10
2012,02,26,17,29,11.30
2012,02,26,17,30,11.30
2012,02,26,17,31,3.20
2012,02,26,17,32,11.30
2012,02,26,17,33,11.30
2012,02,26,17,34,8.10
2012,02,26,17,35,9.60
2012,02,26,17,36,9.60
2012,02,26,17,37,4.80
2012,02,26,17,38,11.30
2012,02,26,17,39,4.80
2012,02,26,17,40,4.80
2012,02,26,17,41,3.20
2012,02,26,17,42,6.40
2012,02,26,17,43,6.40
2012,02,26,17,44,8.10
2012,02,26,17,45,6.40
2012,02,26,17,46,9.60
2012,02,26,17,47,6.40
2012,02,26,17,48,6.40
2012,02,26,17,49,6.40
2012,02,26,17,50,6.40
2012,02,26,17,51,3.20
2012,02,26,17,52,6.40
2012,02,26,17,53,11.30
2012,02,26,17,55,6.40
2012,02,26,17,56,8.10
2012,02,26,17,57,3.20
2012,02,26,17,58,1.60
2012,02,26,17,59,3.20
2012,02,26,18,00,4.80
2012,02,26,18,01,8.10
2012,02,26,18,02,4.80
2012,02,26,18,03,4.80
2012,02,26,18,04,3.20
2012,02,26,18,05,4.80
2012,02,26,18,06,1.60
2012,02,26,18,07,3.20
2012,02,26,18,08,6.40
2012,02,26,18,09,4.80
2012,02,26,18,10,4.80